Location: Mohawk View
(42.7837°N, 73.7885°W)
Time: 06:07:10
(UTC+00:00)

Cosmos 1674 - Pass Details

Date: 17 June 2021
Orbit: 494 x 514 km, 82.5° (Epoch: 03 August)

Event Time Altitude Azimuth Distance (km) Brightness Sun altitude
Exits shadow 02:41:10 14° 212° (SSW) 1,461 4.7 -16.9°
Maximum altitude 02:44:06 43° 281° (WNW) 705 3.7 -17.2°
Drops below altitude 10° 02:47:41 10° 355° (N) 1,702 6.3 -17.5°
Sets 02:49:52 0° 2° (N) 2,589 7.2 -17.7°
